This is the latest recevied weather packets stored in our database for station/object IW1QLH-13. If no packets are shown the sender has not sent any weather packets the latest 10 day(s).
| Time | Temp. | Humidity | Pressure | Rain* | Wind** | Luminosity | Snow |
|---|---|---|---|---|---|---|---|
| 1788362854 | 27.78° C | 11% | - | - | - | 529 W/m² | - |
| 1788362243 | 28.89° C | 11% | - | - | - | 572 W/m² | - |
| 1788361632 | 30° C | 11% | - | - | - | 586 W/m² | - |
| 1788361020 | 28.89° C | 11% | - | - | - | 629 W/m² | - |
| 1788360425 | 28.89° C | 11% | - | - | - | 657 W/m² | - |
| 1788359794 | 30° C | 11% | - | - | - | 700 W/m² | - |
| 1788359183 | 30.56° C | 11% | - | - | - | 715 W/m² | - |
| 1788358572 | 28.89° C | 11% | - | - | - | 743 W/m² | - |
| 1788357960 | 30° C | 11% | - | - | - | 786 W/m² | - |
| 1788357345 | 30° C | 11% | - | - | - | 815 W/m² | - |
| 1788356734 | 28.89° C | 11% | - | - | - | 829 W/m² | - |
| 1788356122 | 30° C | 11% | - | - | - | 858 W/m² | - |
| 1788355511 | 28.89° C | 11% | - | - | - | 858 W/m² | - |
| 1788354900 | 30° C | 11% | - | - | - | 886 W/m² | - |
| 1788354287 | 28.89° C | 11% | - | - | - | 886 W/m² | - |
| 1788353672 | 28.89° C | 11% | - | - | - | 900 W/m² | - |
| 1788353060 | 28.89° C | 11% | - | - | - | 900 W/m² | - |
| 1788352449 | 28.89° C | 11% | - | - | - | 929 W/m² | - |
| 1788351835 | 30.56° C | 11% | - | - | - | 943 W/m² | - |
| 1788351224 | 30° C | 11% | - | - | - | 943 W/m² | - |
| 1788350612 | 30° C | 11% | - | - | - | 929 W/m² | - |
| 1788350000 | 30° C | 11% | - | - | - | 943 W/m² | - |
| 1788349389 | 30.56° C | 11% | - | - | - | 929 W/m² | - |
| 1788348778 | 30° C | 11% | - | - | - | 815 W/m² | - |
| 1788348166 | 30° C | 11% | - | - | - | 929 W/m² | - |
* Rain since midnight (hover to see other rain measurements)
** Current wind speed in m/s (hover to see current wind gust speed)